Time,TemperatureF,DewpointF,PressureIn,WindDirection,WindDirectionDegrees,WindSpeedMPH,WindSpeedGustMPH,Humidity,HourlyPrecipIn,Conditions,Clouds,dailyrainin,SoftwareType,DateUTC
2013-04-01 00:00:00,38.7,17.6,28.97,NNE,19,13.2,16.3,42,0.00,,SKC,0.00,VWS V14.01,2013-04-01 05:00:00,
2013-04-01 00:01:00,38.7,17.6,28.97,NNE,13,16.8,16.8,42,0.00,,SKC,0.00,VWS V14.01,2013-04-01 05:01:00,
2013-04-01 00:02:00,38.7,17.6,28.97,North,3,14.5,16.8,42,0.00,,SKC,0.00,VWS V14.01,2013-04-01 05:02:00,
2013-04-01 00:03:00,38.7,17.0,28.97,North,359,12.8,15.4,41,0.00,,SKC,0.00,VWS V14.01,2013-04-01 05:03:00,
2013-04-01 00:04:00,38.7,17.0,28.97,North,359,12.8,15.0,41,0.00,,SKC,0.00,VWS V14.01,2013-04-01 05:04:00,
2013-04-01 00:05:00,38.7,17.0,28.97,NNE,14,14.1,15.0,41,0.00,,SKC,0.00,VWS V14.01,2013-04-01 05:05:00,
2013-04-01 00:06:00,38.7,17.0,28.97,North,8,12.8,14.1,41,0.00,,SKC,0.00,VWS V14.01,2013-04-01 05:06:00,
2013-04-01 00:07:00,38.7,17.0,28.97,North,11,12.8,13.6,41,0.00,,SKC,0.00,VWS V14.01,2013-04-01 05:07:00,
2013-04-01 00:08:00,38.7,17.0,28.97,NNE,16,12.8,15.0,41,0.00,,SKC,0.00,VWS V14.01,2013-04-01 05:08:00,
2013-04-01 00:09:00,38.7,17.0,28.97,North,3,13.6,13.6,41,0.00,,SKC,0.00,VWS V14.01,2013-04-01 05:09:00,
2013-04-01 00:10:00,38.8,17.2,28.97,North,6,12.8,13.6,41,0.00,,SKC,0.00,VWS V14.01,2013-04-01 05:10:00,
2013-04-01 00:11:00,38.8,17.2,28.97,North,360,15.0,15.0,41,0.00,,SKC,0.00,VWS V14.01,2013-04-01 05:11:00,
2013-04-01 00:12:00,38.8,17.2,29.00,North,1,13.2,15.9,41,0.00,,SKC,0.00,VWS V14.01,2013-04-01 05:12:00,
2013-04-01 00:13:00,38.8,17.2,29.00,North,356,15.4,15.9,41,0.00,,SKC,0.00,VWS V14.01,2013-04-01 05:13:00,
2013-04-01 00:14:00,38.8,17.2,29.00,North,360,16.3,16.3,41,0.00,,SKC,0.00,VWS V14.01,2013-04-01 05:14:00,
2013-04-01 00:15:00,39.0,17.3,29.00,North,353,13.6,17.9,41,0.00,,SKC,0.00,VWS V14.01,2013-04-01 05:15:00,
2013-04-01 00:16:00,39.0,17.3,29.00,North,1,15.0,15.0,41,0.00,,SKC,0.00,VWS V14.01,2013-04-01 05:16:00,
2013-04-01 00:17:00,39.2,17.5,29.00,North,2,14.5,17.0,41,0.00,,SKC,0.00,VWS V14.01,2013-04-01 05:17:00,
2013-04-01 00:18:00,39.0,17.3,29.00,North,5,14.5,17.4,41,0.00,,SKC,0.00,VWS V14.01,2013-04-01 05:18:00,
2013-04-01 00:19:00,39.2,16.9,29.00,North,3,13.6,15.9,40,0.00,,SKC,0.00,VWS V14.01,2013-04-01 05:19:00,
2013-04-01 00:20:00,39.2,16.9,29.00,North,359,15.0,16.8,40,0.00,,SKC,0.00,VWS V14.01,2013-04-01 05:20:00,
2013-04-01 00:21:00,39.2,16.9,29.00,North,2,18.8,18.8,40,0.00,,SKC,0.00,VWS V14.01,2013-04-01 05:21:00,
2013-04-01 00:22:00,39.2,16.3,29.00,North,4,15.0,18.8,39,0.00,,SKC,0.00,VWS V14.01,2013-04-01 05:22:00,
2013-04-01 00:23:00,39.2,16.3,29.00,North,355,15.4,17.4,39,0.00,,SKC,0.00,VWS V14.01,2013-04-01 05:23:00,
2013-04-01 00:24:00,39.2,16.3,29.00,North,354,16.3,17.4,39,0.00,,SKC,0.00,VWS V14.01,2013-04-01 05:24:00,
2013-04-01 00:25:00,39.2,16.3,29.00,North,349,15.9,18.3,39,0.00,,SKC,0.00,VWS V14.01,2013-04-01 05:25:00,
2013-04-01 00:26:00,39.2,15.7,29.00,North,360,17.9,21.9,38,0.00,,SKC,0.00,VWS V14.01,2013-04-01 05:26:00,
2013-04-01 00:27:00,39.2,15.7,29.00,North,1,18.3,18.3,38,0.00,,SKC,0.00,VWS V14.01,2013-04-01 05:27:00,
2013-04-01 00:28:00,39.2,15.1,29.00,North,10,19.2,19.2,37,0.00,,SKC,0.00,VWS V14.01,2013-04-01 05:28:00,
2013-04-01 00:29:00,39.2,14.5,29.00,North,1,17.0,19.2,36,0.00,,SKC,0.00,VWS V14.01,2013-04-01 05:29:00,
2013-04-01 00:30:00,39.4,14.7,29.00,NNE,22,20.1,20.1,36,0.00,,SKC,0.00,VWS V14.01,2013-04-01 05:30:00,
2013-04-01 00:31:00,39.2,13.9,29.00,North,3,19.2,20.1,35,0.00,,SKC,0.00,VWS V14.01,2013-04-01 05:31:00,
2013-04-01 00:32:00,39.2,13.2,29.00,NNE,21,17.4,19.7,34,0.00,,SKC,0.00,VWS V14.01,2013-04-01 05:32:00,
2013-04-01 00:33:00,39.2,13.2,29.00,NNE,16,18.8,19.7,34,0.00,,SKC,0.00,VWS V14.01,2013-04-01 05:33:00,
2013-04-01 00:34:00,39.2,13.9,29.00,North,6,18.3,19.2,35,0.00,,SKC,0.00,VWS V14.01,2013-04-01 05:34:00,
2013-04-01 00:35:00,39.2,13.9,29.00,NNE,26,17.0,18.8,35,0.00,,SKC,0.00,VWS V14.01,2013-04-01 05:35:00,
2013-04-01 00:36:00,39.2,13.9,29.00,North,351,18.8,19.7,35,0.00,,SKC,0.00,VWS V14.01,2013-04-01 05:36:00,
2013-04-01 00:37:00,39.2,13.2,29.00,North,7,20.6,21.9,34,0.00,,SKC,0.00,VWS V14.01,2013-04-01 05:37:00,
2013-04-01 00:38:00,39.2,13.9,29.00,North,7,19.7,20.6,35,0.00,,SKC,0.00,VWS V14.01,2013-04-01 05:38:00,
2013-04-01 00:39:00,39.2,13.2,29.00,North,356,15.4,22.8,34,0.00,,SKC,0.00,VWS V14.01,2013-04-01 05:39:00,
2013-04-01 00:40:00,39.2,12.5,29.00,North,9,20.1,23.7,33,0.00,,SKC,0.00,VWS V14.01,2013-04-01 05:40:00,
2013-04-01 00:41:00,39.2,12.5,29.00,NNE,14,21.5,22.4,33,0.00,,SKC,0.00,VWS V14.01,2013-04-01 05:41:00,
2013-04-01 00:42:00,39.0,12.4,29.00,North,8,18.3,22.8,33,0.00,,SKC,0.00,VWS V14.01,2013-04-01 05:42:00,
2013-04-01 00:43:00,39.2,12.5,29.00,NNE,24,19.7,20.6,33,0.00,,SKC,0.00,VWS V14.01,2013-04-01 05:43:00,
2013-04-01 00:44:00,39.0,13.0,29.00,North,11,19.2,19.7,34,0.00,,SKC,0.00,VWS V14.01,2013-04-01 05:44:00,
2013-04-01 00:45:00,39.0,13.7,29.00,North,3,21.9,22.4,35,0.00,,SKC,0.00,VWS V14.01,2013-04-01 05:45:00,
2013-04-01 00:46:00,39.0,13.7,29.00,NNE,15,17.0,21.9,35,0.00,,SKC,0.00,VWS V14.01,2013-04-01 05:46:00,
2013-04-01 00:47:00,39.0,13.0,29.00,North,4,22.8,22.8,34,0.00,,SKC,0.00,VWS V14.01,2013-04-01 05:47:00,
2013-04-01 00:48:00,39.0,13.0,29.00,NNE,18,19.7,22.8,34,0.00,,SKC,0.00,VWS V14.01,2013-04-01 05:48:00,
2013-04-01 00:49:00,39.0,12.4,29.00,North,8,24.6,24.6,33,0.00,,SKC,0.00,VWS V14.01,2013-04-01 05:49:00,
2013-04-01 00:50:00,39.0,13.0,29.00,North,7,19.2,24.6,34,0.00,,SKC,0.00,VWS V14.01,2013-04-01 05:50:00,
2013-04-01 00:51:00,39.0,13.0,29.00,North,6,19.2,22.4,34,0.00,,SKC,0.00,VWS V14.01,2013-04-01 05:51:00,
2013-04-01 00:52:00,39.0,13.0,29.00,North,10,22.4,22.4,34,0.00,,SKC,0.00,VWS V14.01,2013-04-01 05:52:00,
2013-04-01 00:53:00,38.8,12.2,29.00,North,359,18.8,22.4,33,0.00,,SKC,0.00,VWS V14.01,2013-04-01 05:53:00,
2013-04-01 00:54:00,38.8,12.9,29.00,North,9,20.1,20.1,34,0.00,,SKC,0.00,VWS V14.01,2013-04-01 05:54:00,
2013-04-01 00:55:00,38.8,12.9,29.00,NNE,17,17.4,20.1,34,0.00,,SKC,0.00,VWS V14.01,2013-04-01 05:55:00,
2013-04-01 00:56:00,38.8,12.9,29.00,North,7,19.2,20.6,34,0.00,,SKC,0.00,VWS V14.01,2013-04-01 05:56:00,
2013-04-01 00:57:00,38.8,12.9,29.00,North,6,23.7,23.7,34,0.00,,SKC,0.00,VWS V14.01,2013-04-01 05:57:00,
2013-04-01 00:58:00,38.7,12.7,29.00,North,359,22.4,23.7,34,0.00,,SKC,0.00,VWS V14.01,2013-04-01 05:58:00,
2013-04-01 00:59:00,38.7,12.7,29.00,North,8,18.8,22.4,34,0.00,,SKC,0.00,VWS V14.01,2013-04-01 05:59:00,
2013-04-01 01:00:00,38.7,12.1,29.00,North,359,19.2,22.4,33,0.00,,SKC,0.00,VWS V14.01,2013-04-01 06:00:00,
2013-04-01 01:01:00,38.7,12.1,29.00,North,11,24.2,24.2,33,0.00,,SKC,0.00,VWS V14.01,2013-04-01 06:01:00,
2013-04-01 01:02:00,38.7,12.1,29.00,NNE,18,21.5,22.4,33,0.00,,SKC,0.00,VWS V14.01,2013-04-01 06:02:00,
2013-04-01 01:03:00,38.5,11.2,29.00,North,354,17.0,22.8,32,0.00,,SKC,0.00,VWS V14.01,2013-04-01 06:03:00,
2013-04-01 01:04:00,38.7,12.1,29.00,North,1,20.1,20.1,33,0.00,,SKC,0.00,VWS V14.01,2013-04-01 06:04:00,
2013-04-01 01:05:00,38.5,11.9,29.00,North,9,23.7,23.7,33,0.00,,SKC,0.00,VWS V14.01,2013-04-01 06:05:00,
2013-04-01 01:06:00,38.5,11.9,29.00,North,6,22.4,23.7,33,0.00,,SKC,0.00,VWS V14.01,2013-04-01 06:06:00,
2013-04-01 01:07:00,38.5,11.9,29.00,North,10,22.4,22.4,33,0.00,,SKC,0.00,VWS V14.01,2013-04-01 06:07:00,
2013-04-01 01:08:00,38.5,12.6,29.00,North,353,18.8,22.4,34,0.00,,SKC,0.00,VWS V14.01,2013-04-01 06:08:00,
2013-04-01 01:09:00,38.5,12.6,29.00,North,349,19.7,19.7,34,0.00,,SKC,0.00,VWS V14.01,2013-04-01 06:09:00,
2013-04-01 01:10:00,38.7,13.4,29.00,North,360,17.4,19.7,35,0.00,,SKC,0.00,VWS V14.01,2013-04-01 06:10:00,
2013-04-01 01:11:00,38.7,12.7,29.00,North,357,17.4,22.8,34,0.00,,SKC,0.00,VWS V14.01,2013-04-01 06:11:00,
2013-04-01 01:12:00,38.7,12.1,29.00,NNE,15,21.9,21.9,33,0.00,,SKC,0.00,VWS V14.01,2013-04-01 06:12:00,
2013-04-01 01:13:00,38.7,12.1,29.00,North,6,20.1,21.9,33,0.00,,SKC,0.00,VWS V14.01,2013-04-01 06:13:00,
2013-04-01 01:14:00,38.5,11.9,29.00,North,3,17.9,20.6,33,0.00,,SKC,0.00,VWS V14.01,2013-04-01 06:14:00,
2013-04-01 01:15:00,38.5,11.9,29.00,NNE,15,21.5,21.5,33,0.00,,SKC,0.00,VWS V14.01,2013-04-01 06:15:00,
2013-04-01 01:16:00,38.5,11.9,29.00,North,2,17.9,21.5,33,0.00,,SKC,0.00,VWS V14.01,2013-04-01 06:16:00,
2013-04-01 01:17:00,38.5,11.9,29.00,North,8,19.7,22.4,33,0.00,,SKC,0.00,VWS V14.01,2013-04-01 06:17:00,
2013-04-01 01:18:00,38.5,11.9,29.00,North,7,19.7,22.4,33,0.00,,SKC,0.00,VWS V14.01,2013-04-01 06:18:00,
2013-04-01 01:19:00,38.5,11.9,29.00,North,9,15.4,19.7,33,0.00,,SKC,0.00,VWS V14.01,2013-04-01 06:19:00,
2013-04-01 01:20:00,38.5,12.6,29.00,North,9,21.5,22.4,34,0.00,,SKC,0.00,VWS V14.01,2013-04-01 06:20:00,
2013-04-01 01:21:00,38.5,11.9,29.00,North,359,22.4,22.4,33,0.00,,SKC,0.00,VWS V14.01,2013-04-01 06:21:00,
2013-04-01 01:22:00,38.5,11.9,29.00,North,10,19.7,19.7,33,0.00,,SKC,0.00,VWS V14.01,2013-04-01 06:22:00,
2013-04-01 01:23:00,38.5,11.9,29.00,North,2,20.6,22.4,33,0.00,,SKC,0.00,VWS V14.01,2013-04-01 06:23:00,
2013-04-01 01:24:00,38.5,11.9,29.00,North,9,19.7,22.4,33,0.00,,SKC,0.00,VWS V14.01,2013-04-01 06:24:00,
2013-04-01 01:25:00,38.3,11.7,29.00,North,1,21.9,22.4,33,0.00,,SKC,0.00,VWS V14.01,2013-04-01 06:25:00,
2013-04-01 01:26:00,38.1,10.9,29.00,NNE,15,21.9,21.9,32,0.00,,SKC,0.00,VWS V14.01,2013-04-01 06:26:00,
2013-04-01 01:27:00,38.1,10.9,29.00,North,359,21.0,21.0,32,0.00,,SKC,0.00,VWS V14.01,2013-04-01 06:27:00,
2013-04-01 01:28:00,38.1,10.9,29.00,North,358,24.2,24.2,32,0.00,,SKC,0.00,VWS V14.01,2013-04-01 06:28:00,
2013-04-01 01:30:00,38.1,11.6,29.00,North,8,20.6,21.9,33,0.00,,SKC,0.00,VWS V14.01,2013-04-01 06:30:00,
2013-04-01 01:31:00,38.1,11.6,29.00,North,9,22.8,22.8,33,0.00,,SKC,0.00,VWS V14.01,2013-04-01 06:31:00,
2013-04-01 01:32:00,38.1,11.6,29.00,NNE,14,22.8,22.8,33,0.00,,SKC,0.00,VWS V14.01,2013-04-01 06:32:00,
2013-04-01 01:33:00,38.1,11.6,29.00,North,358,17.4,22.8,33,0.00,,SKC,0.00,VWS V14.01,2013-04-01 06:33:00,
2013-04-01 01:34:00,38.1,10.9,29.00,North,357,17.4,22.4,32,0.00,,SKC,0.00,VWS V14.01,2013-04-01 06:34:00,
2013-04-01 01:35:00,38.1,10.9,29.00,North,8,22.8,22.8,32,0.00,,SKC,0.00,VWS V14.01,2013-04-01 06:35:00,
2013-04-01 01:36:00,37.9,10.0,29.00,NNE,12,20.1,24.6,31,0.00,,SKC,0.00,VWS V14.01,2013-04-01 06:36:00,
2013-04-01 01:37:00,37.9,10.7,29.00,North,7,22.8,22.8,32,0.00,,SKC,0.00,VWS V14.01,2013-04-01 06:37:00,
2013-04-01 01:38:00,37.9,10.7,29.00,NNE,18,21.0,22.8,32,0.00,,SKC,0.00,VWS V14.01,2013-04-01 06:38:00,
2013-04-01 01:39:00,37.9,10.7,29.00,North,5,22.4,22.8,32,0.00,,SKC,0.00,VWS V14.01,2013-04-01 06:39:00,
2013-04-01 01:40:00,37.9,10.7,29.00,North,8,20.6,24.2,32,0.00,,SKC,0.00,VWS V14.01,2013-04-01 06:40:00,
2013-04-01 01:41:00,37.9,10.7,29.00,North,8,22.4,22.4,32,0.00,,SKC,0.00,VWS V14.01,2013-04-01 06:41:00,
2013-04-01 01:42:00,37.9,11.4,29.03,North,356,17.4,22.4,33,0.00,,SKC,0.00,VWS V14.01,2013-04-01 06:42:00,
2013-04-01 01:43:00,37.9,11.4,29.03,North,11,19.7,20.1,33,0.00,,SKC,0.00,VWS V14.01,2013-04-01 06:43:00,
2013-04-01 01:44:00,37.9,11.4,29.03,NNE,13,18.8,21.9,33,0.00,,SKC,0.00,VWS V14.01,2013-04-01 06:44:00,
2013-04-01 01:45:00,37.9,11.4,29.03,North,9,17.4,21.5,33,0.00,,SKC,0.00,VWS V14.01,2013-04-01 06:45:00,
2013-04-01 01:46:00,37.9,11.4,29.03,NNE,13,21.0,23.7,33,0.00,,SKC,0.00,VWS V14.01,2013-04-01 06:46:00,
2013-04-01 01:47:00,37.9,10.7,29.03,NNE,18,17.4,21.0,32,0.00,,SKC,0.00,VWS V14.01,2013-04-01 06:47:00,
2013-04-01 01:48:00,37.9,10.7,29.03,North,3,19.2,19.2,32,0.00,,SKC,0.00,VWS V14.01,2013-04-01 06:48:00,
2013-04-01 01:49:00,37.9,10.7,29.03,North,9,19.7,23.3,32,0.00,,SKC,0.00,VWS V14.01,2013-04-01 06:49:00,
2013-04-01 01:50:00,37.9,10.7,29.03,North,9,18.8,21.5,32,0.00,,SKC,0.00,VWS V14.01,2013-04-01 06:50:00,
2013-04-01 01:51:00,37.9,11.4,29.03,North,7,17.4,18.8,33,0.00,,SKC,0.00,VWS V14.01,2013-04-01 06:51:00,
2013-04-01 01:52:00,37.9,11.4,29.03,NNE,33,22.4,22.8,33,0.00,,SKC,0.00,VWS V14.01,2013-04-01 06:52:00,
2013-04-01 01:53:00,37.9,11.4,29.03,NNE,27,17.0,22.4,33,0.00,,SKC,0.00,VWS V14.01,2013-04-01 06:53:00,
2013-04-01 01:54:00,37.9,10.7,29.03,North,10,17.9,22.8,32,0.00,,SKC,0.00,VWS V14.01,2013-04-01 06:54:00,
2013-04-01 01:55:00,37.9,11.4,29.03,North,5,22.4,23.3,33,0.00,,SKC,0.00,VWS V14.01,2013-04-01 06:55:00,
2013-04-01 01:56:00,37.8,11.3,29.00,NNE,19,17.0,22.8,33,0.00,,SKC,0.00,VWS V14.01,2013-04-01 06:56:00,
2013-04-01 01:57:00,37.9,11.4,29.00,NNE,19,20.1,21.0,33,0.00,,SKC,0.00,VWS V14.01,2013-04-01 06:57:00,
2013-04-01 01:58:00,37.8,11.3,29.00,North,2,15.4,20.1,33,0.00,,SKC,0.00,VWS V14.01,2013-04-01 06:58:00,
2013-04-01 01:59:00,37.8,11.3,29.00,NNE,17,20.1,21.5,33,0.00,,SKC,0.00,VWS V14.01,2013-04-01 06:59:00,
2013-04-01 02:00:00,37.8,11.3,29.00,NNE,28,22.8,23.7,33,0.00,,SKC,0.00,VWS V14.01,2013-04-01 07:00:00,
2013-04-01 02:02:00,37.8,11.3,29.00,NNE,18,19.7,21.0,33,0.00,,SKC,0.00,VWS V14.01,2013-04-01 07:02:00,
2013-04-01 02:03:00,37.8,11.3,29.00,NNE,21,20.1,20.1,33,0.00,,SKC,0.00,VWS V14.01,2013-04-01 07:03:00,
2013-04-01 02:04:00,37.8,11.3,29.00,North,10,21.5,23.7,33,0.00,,SKC,0.00,VWS V14.01,2013-04-01 07:04:00,
2013-04-01 02:05:00,37.6,11.1,29.00,NNE,13,22.4,22.8,33,0.00,,SKC,0.00,VWS V14.01,2013-04-01 07:05:00,
2013-04-01 02:06:00,37.6,10.4,29.00,North,3,15.4,22.4,32,0.00,,SKC,0.00,VWS V14.01,2013-04-01 07:06:00,
2013-04-01 02:07:00,37.6,11.1,29.00,North,6,15.0,22.8,33,0.00,,SKC,0.00,VWS V14.01,2013-04-01 07:07:00,
2013-04-01 02:08:00,37.6,11.1,29.00,North,9,21.5,21.5,33,0.00,,SKC,0.00,VWS V14.01,2013-04-01 07:08:00,
2013-04-01 02:09:00,37.6,11.1,29.00,North,3,17.9,20.6,33,0.00,,SKC,0.00,VWS V14.01,2013-04-01 07:09:00,
2013-04-01 02:10:00,37.8,11.9,29.00,NNE,28,17.9,20.1,34,0.00,,SKC,0.00,VWS V14.01,2013-04-01 07:10:00,
2013-04-01 02:11:00,37.6,11.8,29.03,North,360,16.3,19.2,34,0.00,,SKC,0.00,VWS V14.01,2013-04-01 07:11:00,
2013-04-01 02:13:00,37.6,11.8,29.03,NNE,18,19.7,20.6,34,0.00,,SKC,0.00,VWS V14.01,2013-04-01 07:13:00,
2013-04-01 02:14:00,37.6,11.1,29.03,NNE,20,17.4,20.6,33,0.00,,SKC,0.00,VWS V14.01,2013-04-01 07:14:00,
2013-04-01 02:15:00,37.6,11.8,29.03,North,3,19.7,20.1,34,0.00,,SKC,0.00,VWS V14.01,2013-04-01 07:15:00,
2013-04-01 02:16:00,37.6,11.8,29.03,North,6,19.7,22.4,34,0.00,,SKC,0.00,VWS V14.01,2013-04-01 07:16:00,
2013-04-01 02:17:00,37.6,11.8,29.03,North,11,20.6,20.6,34,0.00,,SKC,0.00,VWS V14.01,2013-04-01 07:17:00,
2013-04-01 02:18:00,37.4,10.9,29.03,NNE,20,17.4,20.6,33,0.00,,SKC,0.00,VWS V14.01,2013-04-01 07:18:00,
2013-04-01 02:19:00,37.4,10.9,29.03,North,5,18.3,21.0,33,0.00,,SKC,0.00,VWS V14.01,2013-04-01 07:19:00,
2013-04-01 02:20:00,37.4,10.9,29.03,NNE,15,19.2,19.7,33,0.00,,SKC,0.00,VWS V14.01,2013-04-01 07:20:00,
2013-04-01 02:21:00,37.4,10.9,29.03,North,11,18.3,21.5,33,0.00,,SKC,0.00,VWS V14.01,2013-04-01 07:21:00,
2013-04-01 02:22:00,37.4,10.9,29.03,North,11,18.8,21.9,33,0.00,,SKC,0.00,VWS V14.01,2013-04-01 07:22:00,
2013-04-01 02:23:00,37.4,10.9,29.03,NNE,20,19.7,21.5,33,0.00,,SKC,0.00,VWS V14.01,2013-04-01 07:23:00,
2013-04-01 02:24:00,37.4,10.9,29.03,NNE,19,18.8,22.4,33,0.00,,SKC,0.00,VWS V14.01,2013-04-01 07:24:00,
2013-04-01 02:25:00,37.4,11.6,29.03,NNE,19,16.8,18.8,34,0.00,,SKC,0.00,VWS V14.01,2013-04-01 07:25:00,
2013-04-01 02:26:00,37.4,11.6,29.03,NNE,12,17.0,18.3,34,0.00,,SKC,0.00,VWS V14.01,2013-04-01 07:26:00,
2013-04-01 02:27:00,37.4,11.6,29.03,NNE,14,19.2,19.7,34,0.00,,SKC,0.00,VWS V14.01,2013-04-01 07:27:00,
2013-04-01 02:28:00,37.4,11.6,29.03,North,8,17.0,21.0,34,0.00,,SKC,0.00,VWS V14.01,2013-04-01 07:28:00,
2013-04-01 02:29:00,37.4,11.6,29.03,North,10,17.0,17.0,34,0.00,,SKC,0.00,VWS V14.01,2013-04-01 07:29:00,
2013-04-01 02:30:00,37.4,11.6,29.03,NNE,19,19.7,21.0,34,0.00,,SKC,0.00,VWS V14.01,2013-04-01 07:30:00,
2013-04-01 02:31:00,37.4,11.6,29.03,NNE,17,18.8,19.7,34,0.00,,SKC,0.00,VWS V14.01,2013-04-01 07:31:00,
2013-04-01 02:32:00,37.4,11.6,29.03,NNE,31,17.9,20.6,34,0.00,,SKC,0.00,VWS V14.01,2013-04-01 07:32:00,
2013-04-01 02:33:00,37.4,11.6,29.03,North,8,15.4,21.0,34,0.00,,SKC,0.00,VWS V14.01,2013-04-01 07:33:00,
2013-04-01 02:34:00,37.2,11.4,29.03,NNE,17,20.1,21.0,34,0.00,,SKC,0.00,VWS V14.01,2013-04-01 07:34:00,
2013-04-01 02:35:00,37.2,11.4,29.03,North,9,19.2,20.1,34,0.00,,SKC,0.00,VWS V14.01,2013-04-01 07:35:00,
2013-04-01 02:36:00,37.2,12.1,29.03,NNE,33,15.0,19.2,35,0.00,,SKC,0.00,VWS V14.01,2013-04-01 07:36:00,
2013-04-01 02:37:00,37.2,12.1,29.03,North,5,20.1,20.1,35,0.00,,SKC,0.00,VWS V14.01,2013-04-01 07:37:00,
2013-04-01 02:38:00,37.2,12.1,29.03,NNE,17,20.1,21.5,35,0.00,,SKC,0.00,VWS V14.01,2013-04-01 07:38:00,
2013-04-01 02:39:00,37.2,12.1,29.03,North,4,17.4,20.6,35,0.00,,SKC,0.00,VWS V14.01,2013-04-01 07:39:00,
2013-04-01 02:40:00,37.0,11.9,29.03,NNE,19,19.2,19.7,35,0.00,,SKC,0.00,VWS V14.01,2013-04-01 07:40:00,
2013-04-01 02:41:00,37.0,11.9,29.03,NE,37,13.6,19.2,35,0.00,,SKC,0.00,VWS V14.01,2013-04-01 07:41:00,
2013-04-01 02:42:00,37.2,12.7,29.03,North,5,15.4,19.7,36,0.00,,SKC,0.00,VWS V14.01,2013-04-01 07:42:00,
2013-04-01 02:43:00,37.0,12.6,29.03,North,9,15.0,21.9,36,0.00,,SKC,0.00,VWS V14.01,2013-04-01 07:43:00,
2013-04-01 02:44:00,37.2,12.7,29.03,North,3,15.9,17.9,36,0.00,,SKC,0.00,VWS V14.01,2013-04-01 07:44:00,
2013-04-01 02:45:00,37.0,12.6,29.03,North,2,18.8,21.5,36,0.00,,SKC,0.00,VWS V14.01,2013-04-01 07:45:00,
2013-04-01 02:46:00,37.0,13.2,29.03,North,11,17.0,18.8,37,0.00,,SKC,0.00,VWS V14.01,2013-04-01 07:46:00,
2013-04-01 02:47:00,37.0,13.2,29.03,NNE,15,19.2,19.2,37,0.00,,SKC,0.00,VWS V14.01,2013-04-01 07:47:00,
2013-04-01 02:48:00,37.0,13.2,29.03,NE,43,15.0,19.2,37,0.00,,SKC,0.00,VWS V14.01,2013-04-01 07:48:00,
2013-04-01 02:49:00,37.2,14.0,29.03,North,9,11.0,17.4,38,0.00,,SKC,0.00,VWS V14.01,2013-04-01 07:49:00,
2013-04-01 02:50:00,37.2,14.0,29.03,North,8,15.9,17.0,38,0.00,,SKC,0.00,VWS V14.01,2013-04-01 07:50:00,
2013-04-01 02:51:00,37.2,14.0,29.03,NNE,12,12.8,18.8,38,0.00,,SKC,0.00,VWS V14.01,2013-04-01 07:51:00,
2013-04-01 02:52:00,37.2,14.0,29.03,NNE,23,15.0,17.0,38,0.00,,SKC,0.00,VWS V14.01,2013-04-01 07:52:00,
2013-04-01 02:53:00,37.2,13.4,29.03,NE,35,14.5,17.4,37,0.00,,SKC,0.00,VWS V14.01,2013-04-01 07:53:00,
2013-04-01 02:54:00,37.2,12.1,29.03,NE,36,15.0,15.0,35,0.00,,SKC,0.00,VWS V14.01,2013-04-01 07:54:00,
2013-04-01 02:55:00,37.2,11.4,29.03,NNE,28,15.0,15.4,34,0.00,,SKC,0.00,VWS V14.01,2013-04-01 07:55:00,
2013-04-01 02:56:00,37.2,11.4,29.06,NNE,33,15.0,15.0,34,0.00,,SKC,0.00,VWS V14.01,2013-04-01 07:56:00,
2013-04-01 02:57:00,37.4,11.6,29.06,NNE,16,15.0,15.4,34,0.00,,SKC,0.00,VWS V14.01,2013-04-01 07:57:00,
2013-04-01 02:58:00,37.4,12.3,29.06,NE,37,11.0,15.0,35,0.00,,SKC,0.00,VWS V14.01,2013-04-01 07:58:00,
2013-04-01 02:59:00,37.4,12.3,29.06,NE,36,12.8,16.8,35,0.00,,SKC,0.00,VWS V14.01,2013-04-01 07:59:00,
2013-04-01 03:00:00,37.4,12.3,29.06,NE,38,12.8,15.0,35,0.00,,SKC,0.00,VWS V14.01,2013-04-01 08:00:00,
2013-04-01 03:01:00,37.4,11.6,29.06,NNE,24,14.5,14.5,34,0.00,,SKC,0.00,VWS V14.01,2013-04-01 08:01:00,
2013-04-01 03:02:00,37.4,10.9,29.06,NE,37,13.2,15.4,33,0.00,,SKC,0.00,VWS V14.01,2013-04-01 08:02:00,
2013-04-01 03:03:00,37.4,10.9,29.06,NE,34,13.2,15.0,33,0.00,,SKC,0.00,VWS V14.01,2013-04-01 08:03:00,
2013-04-01 03:04:00,37.4,10.2,29.06,NNE,33,14.5,15.0,32,0.00,,SKC,0.00,VWS V14.01,2013-04-01 08:04:00,
2013-04-01 03:05:00,37.4,10.2,29.06,NE,35,15.4,15.4,32,0.00,,SKC,0.00,VWS V14.01,2013-04-01 08:05:00,
2013-04-01 03:06:00,37.4,9.5,29.06,NNE,26,14.5,15.9,31,0.00,,SKC,0.00,VWS V14.01,2013-04-01 08:06:00,
2013-04-01 03:07:00,37.4,9.5,29.06,NNE,20,13.6,14.5,31,0.00,,SKC,0.00,VWS V14.01,2013-04-01 08:07:00,
2013-04-01 03:08:00,37.4,9.5,29.06,NNE,23,10.5,15.0,31,0.00,,SKC,0.00,VWS V14.01,2013-04-01 08:08:00,
2013-04-01 03:09:00,37.4,9.5,29.06,NNE,14,15.0,15.0,31,0.00,,SKC,0.00,VWS V14.01,2013-04-01 08:09:00,
2013-04-01 03:10:00,37.4,9.5,29.06,North,357,11.0,15.0,31,0.00,,SKC,0.00,VWS V14.01,2013-04-01 08:10:00,
2013-04-01 03:11:00,37.4,9.5,29.06,NNE,23,11.9,15.4,31,0.00,,SKC,0.00,VWS V14.01,2013-04-01 08:11:00,
2013-04-01 03:12:00,37.4,9.5,29.03,NE,44,11.0,13.2,31,0.00,,SKC,0.00,VWS V14.01,2013-04-01 08:12:00,
2013-04-01 03:13:00,37.6,9.7,29.03,NNE,31,12.8,13.2,31,0.00,,SKC,0.00,VWS V14.01,2013-04-01 08:13:00,
2013-04-01 03:14:00,37.6,9.7,29.03,NNE,21,16.8,16.8,31,0.00,,SKC,0.00,VWS V14.01,2013-04-01 08:14:00,
2013-04-01 03:15:00,37.4,9.5,29.03,NNE,23,12.8,16.8,31,0.00,,SKC,0.00,VWS V14.01,2013-04-01 08:15:00,
2013-04-01 03:16:00,37.4,9.5,29.03,NNE,12,12.8,13.2,31,0.00,,SKC,0.00,VWS V14.01,2013-04-01 08:16:00,
2013-04-01 03:17:00,37.4,9.5,29.03,NE,55,11.0,13.2,31,0.00,,SKC,0.00,VWS V14.01,2013-04-01 08:17:00,
2013-04-01 03:18:00,37.4,9.5,29.03,NNE,13,14.1,14.1,31,0.00,,SKC,0.00,VWS V14.01,2013-04-01 08:18:00,
2013-04-01 03:19:00,37.4,9.5,29.03,North,5,11.0,14.1,31,0.00,,SKC,0.00,VWS V14.01,2013-04-01 08:19:00,
2013-04-01 03:20:00,37.4,10.2,29.03,NNE,20,11.0,12.3,32,0.00,,SKC,0.00,VWS V14.01,2013-04-01 08:20:00,
2013-04-01 03:21:00,37.4,10.2,29.03,NNE,33,13.6,13.6,32,0.00,,SKC,0.00,VWS V14.01,2013-04-01 08:21:00,
2013-04-01 03:23:00,37.4,10.2,29.03,NNE,24,11.0,15.4,32,0.00,,SKC,0.00,VWS V14.01,2013-04-01 08:23:00,
2013-04-01 03:25:00,37.4,10.2,29.03,NNE,25,10.5,13.2,32,0.00,,SKC,0.00,VWS V14.01,2013-04-01 08:25:00,
2013-04-01 03:26:00,37.4,9.5,29.03,NNE,25,15.0,15.0,31,0.00,,SKC,0.00,VWS V14.01,2013-04-01 08:26:00,
2013-04-01 03:27:00,37.4,9.5,29.03,NNE,29,15.0,17.9,31,0.00,,SKC,0.00,VWS V14.01,2013-04-01 08:27:00,
2013-04-01 03:28:00,37.4,9.5,29.03,NNE,32,12.8,12.8,31,0.00,,SKC,0.00,VWS V14.01,2013-04-01 08:28:00,
2013-04-01 03:29:00,37.4,9.5,29.03,NNE,26,15.0,15.0,31,0.00,,SKC,0.00,VWS V14.01,2013-04-01 08:29:00,
2013-04-01 03:30:00,37.2,9.4,29.03,NNE,27,13.2,15.9,31,0.00,,SKC,0.00,VWS V14.01,2013-04-01 08:30:00,
2013-04-01 03:31:00,37.0,9.2,29.03,NE,40,15.4,16.3,31,0.00,,SKC,0.00,VWS V14.01,2013-04-01 08:31:00,
2013-04-01 03:32:00,37.0,9.2,29.03,NE,42,16.3,16.3,31,0.00,,SKC,0.00,VWS V14.01,2013-04-01 08:32:00,
2013-04-01 03:33:00,36.9,9.1,29.03,NNE,24,13.2,13.2,31,0.00,,SKC,0.00,VWS V14.01,2013-04-01 08:33:00,
2013-04-01 03:34:00,37.0,9.2,29.03,NNE,30,12.3,14.5,31,0.00,,SKC,0.00,VWS V14.01,2013-04-01 08:34:00,
2013-04-01 03:35:00,37.0,9.2,29.03,NE,39,15.9,18.8,31,0.00,,SKC,0.00,VWS V14.01,2013-04-01 08:35:00,
2013-04-01 03:36:00,36.9,9.1,29.03,NE,34,14.5,15.9,31,0.00,,SKC,0.00,VWS V14.01,2013-04-01 08:36:00,
2013-04-01 03:37:00,36.9,9.1,29.03,NNE,28,14.5,15.4,31,0.00,,SKC,0.00,VWS V14.01,2013-04-01 08:37:00,
2013-04-01 03:38:00,36.9,9.1,29.03,NE,34,15.4,15.4,31,0.00,,SKC,0.00,VWS V14.01,2013-04-01 08:38:00,
2013-04-01 03:39:00,36.9,9.1,29.03,NE,38,17.0,17.0,31,0.00,,SKC,0.00,VWS V14.01,2013-04-01 08:39:00,
2013-04-01 03:40:00,36.9,9.1,29.03,NNE,31,15.0,17.4,31,0.00,,SKC,0.00,VWS V14.01,2013-04-01 08:40:00,
2013-04-01 03:41:00,36.9,9.1,29.03,NE,37,15.4,15.9,31,0.00,,SKC,0.00,VWS V14.01,2013-04-01 08:41:00,
2013-04-01 03:42:00,36.9,9.1,29.06,NNE,30,17.4,17.4,31,0.00,,SKC,0.00,VWS V14.01,2013-04-01 08:42:00,
2013-04-01 03:43:00,36.9,9.1,29.06,NE,52,11.4,15.0,31,0.00,,SKC,0.00,VWS V14.01,2013-04-01 08:43:00,
2013-04-01 03:44:00,36.9,9.1,29.06,NNE,29,12.8,15.4,31,0.00,,SKC,0.00,VWS V14.01,2013-04-01 08:44:00,
2013-04-01 03:45:00,36.9,9.1,29.06,NE,41,12.8,17.0,31,0.00,,SKC,0.00,VWS V14.01,2013-04-01 08:45:00,
2013-04-01 03:46:00,36.9,9.1,29.06,NNE,32,15.4,15.4,31,0.00,,SKC,0.00,VWS V14.01,2013-04-01 08:46:00,
2013-04-01 03:47:00,36.9,8.3,29.06,NNE,23,15.0,17.4,30,0.00,,SKC,0.00,VWS V14.01,2013-04-01 08:47:00,
2013-04-01 03:48:00,36.9,8.3,29.06,NNE,22,13.6,15.9,30,0.00,,SKC,0.00,VWS V14.01,2013-04-01 08:48:00,
2013-04-01 03:49:00,36.9,8.3,29.06,NE,34,16.3,17.4,30,0.00,,SKC,0.00,VWS V14.01,2013-04-01 08:49:00,
2013-04-01 03:50:00,36.9,8.3,29.06,NNE,21,13.2,17.4,30,0.00,,SKC,0.00,VWS V14.01,2013-04-01 08:50:00,
2013-04-01 03:51:00,36.9,8.3,29.06,NE,38,17.0,17.0,30,0.00,,SKC,0.00,VWS V14.01,2013-04-01 08:51:00,
2013-04-01 03:52:00,36.9,8.3,29.06,NNE,28,15.9,19.7,30,0.00,,SKC,0.00,VWS V14.01,2013-04-01 08:52:00,
2013-04-01 03:53:00,36.9,8.3,29.06,NE,40,13.6,13.6,30,0.00,,SKC,0.00,VWS V14.01,2013-04-01 08:53:00,
2013-04-01 03:54:00,36.9,8.3,29.06,NE,36,14.5,14.5,30,0.00,,SKC,0.00,VWS V14.01,2013-04-01 08:54:00,
2013-04-01 03:55:00,36.9,8.3,29.06,NNE,31,13.2,14.5,30,0.00,,SKC,0.00,VWS V14.01,2013-04-01 08:55:00,
2013-04-01 03:56:00,36.9,8.3,29.06,NNE,33,13.6,16.3,30,0.00,,SKC,0.00,VWS V14.01,2013-04-01 08:56:00,
2013-04-01 03:57:00,36.9,8.3,29.06,NNE,32,12.8,15.4,30,0.00,,SKC,0.00,VWS V14.01,2013-04-01 08:57:00,
2013-04-01 03:58:00,36.9,8.3,29.06,NE,34,12.8,14.1,30,0.00,,SKC,0.00,VWS V14.01,2013-04-01 08:58:00,
2013-04-01 03:59:00,36.9,8.3,29.06,NNE,30,13.2,14.1,30,0.00,,SKC,0.00,VWS V14.01,2013-04-01 08:59:00,
2013-04-01 04:00:00,36.9,8.3,29.06,NNE,28,13.6,15.4,30,0.00,,SKC,0.00,VWS V14.01,2013-04-01 09:00:00,
2013-04-01 04:01:00,36.9,8.3,29.06,NE,42,15.0,16.8,30,0.00,,SKC,0.00,VWS V14.01,2013-04-01 09:01:00,
2013-04-01 04:02:00,36.9,8.3,29.06,NNE,32,17.0,17.0,30,0.00,,SKC,0.00,VWS V14.01,2013-04-01 09:02:00,
2013-04-01 04:03:00,36.9,8.3,29.06,North,10,13.2,17.4,30,0.00,,SKC,0.00,VWS V14.01,2013-04-01 09:03:00,
2013-04-01 04:04:00,36.9,8.3,29.06,NNE,33,12.8,18.3,30,0.00,,SKC,0.00,VWS V14.01,2013-04-01 09:04:00,
2013-04-01 04:05:00,36.9,8.3,29.06,NE,35,17.4,17.4,30,0.00,,SKC,0.00,VWS V14.01,2013-04-01 09:05:00,
2013-04-01 04:06:00,36.9,8.3,29.06,NNE,26,15.4,17.4,30,0.00,,SKC,0.00,VWS V14.01,2013-04-01 09:06:00,
2013-04-01 04:07:00,36.9,8.3,29.06,NNE,29,12.8,15.4,30,0.00,,SKC,0.00,VWS V14.01,2013-04-01 09:07:00,
2013-04-01 04:08:00,36.9,8.3,29.06,NNE,31,15.4,15.4,30,0.00,,SKC,0.00,VWS V14.01,2013-04-01 09:08:00,
2013-04-01 04:09:00,36.9,8.3,29.06,NNE,24,12.8,16.8,30,0.00,,SKC,0.00,VWS V14.01,2013-04-01 09:09:00,
2013-04-01 04:10:00,36.9,8.3,29.06,NNE,26,10.5,15.4,30,0.00,,SKC,0.00,VWS V14.01,2013-04-01 09:10:00,
2013-04-01 04:11:00,37.0,8.5,29.06,NNE,26,12.8,15.0,30,0.00,,SKC,0.00,VWS V14.01,2013-04-01 09:11:00,
2013-04-01 04:12:00,37.0,8.5,29.06,North,11,15.0,18.8,30,0.00,,SKC,0.00,VWS V14.01,2013-04-01 09:12:00,
2013-04-01 04:13:00,37.0,9.2,29.06,NNE,13,13.6,13.6,31,0.00,,SKC,0.00,VWS V14.01,2013-04-01 09:13:00,
2013-04-01 04:14:00,37.0,9.2,29.06,NNE,31,14.1,17.4,31,0.00,,SKC,0.00,VWS V14.01,2013-04-01 09:14:00,
2013-04-01 04:15:00,36.9,9.1,29.06,NNE,15,17.4,18.3,31,0.00,,SKC,0.00,VWS V14.01,2013-04-01 09:15:00,
2013-04-01 04:16:00,36.9,8.3,29.06,NNE,13,17.4,19.2,30,0.00,,SKC,0.00,VWS V14.01,2013-04-01 09:16:00,
2013-04-01 04:18:00,36.9,9.1,29.06,NNE,23,12.8,13.6,31,0.00,,SKC,0.00,VWS V14.01,2013-04-01 09:18:00,
2013-04-01 04:19:00,36.9,9.1,29.06,North,356,17.0,19.2,31,0.00,,SKC,0.00,VWS V14.01,2013-04-01 09:19:00,
2013-04-01 04:20:00,36.9,9.1,29.06,North,11,17.4,20.6,31,0.00,,SKC,0.00,VWS V14.01,2013-04-01 09:20:00,
2013-04-01 04:21:00,36.9,9.1,29.06,North,10,17.9,17.9,31,0.00,,SKC,0.00,VWS V14.01,2013-04-01 09:21:00,
2013-04-01 04:22:00,36.9,9.1,29.06,NNE,15,19.2,21.5,31,0.00,,SKC,0.00,VWS V14.01,2013-04-01 09:22:00,
2013-04-01 04:23:00,36.7,8.9,29.06,North,11,20.1,20.1,31,0.00,,SKC,0.00,VWS V14.01,2013-04-01 09:23:00,
2013-04-01 04:24:00,36.7,8.2,29.06,North,9,15.9,20.1,30,0.00,,SKC,0.00,VWS V14.01,2013-04-01 09:24:00,
2013-04-01 04:25:00,36.7,8.2,29.06,NNE,12,17.0,17.4,30,0.00,,SKC,0.00,VWS V14.01,2013-04-01 09:25:00,
2013-04-01 04:26:00,36.7,8.9,29.09,NNE,15,17.0,19.2,31,0.00,,SKC,0.00,VWS V14.01,2013-04-01 09:26:00,
2013-04-01 04:27:00,36.7,8.9,29.09,NNE,27,19.7,20.6,31,0.00,,SKC,0.00,VWS V14.01,2013-04-01 09:27:00,
2013-04-01 04:28:00,36.7,8.2,29.09,NNE,25,22.4,22.4,30,0.00,,SKC,0.00,VWS V14.01,2013-04-01 09:28:00,
2013-04-01 04:29:00,36.5,8.0,29.09,NNE,21,23.7,23.7,30,0.00,,SKC,0.00,VWS V14.01,2013-04-01 09:29:00,
2013-04-01 04:30:00,36.5,8.0,29.09,NNE,15,14.5,20.1,30,0.00,,SKC,0.00,VWS V14.01,2013-04-01 09:30:00,
2013-04-01 04:31:00,36.5,8.0,29.09,NNE,15,19.2,19.2,30,0.00,,SKC,0.00,VWS V14.01,2013-04-01 09:31:00,
2013-04-01 04:32:00,36.5,8.0,29.09,North,11,17.9,20.1,30,0.00,,SKC,0.00,VWS V14.01,2013-04-01 09:32:00,
2013-04-01 04:33:00,36.5,8.0,29.09,NNE,16,13.2,19.2,30,0.00,,SKC,0.00,VWS V14.01,2013-04-01 09:33:00,
2013-04-01 04:34:00,36.7,8.9,29.09,NNE,33,18.3,18.3,31,0.00,,SKC,0.00,VWS V14.01,2013-04-01 09:34:00,
2013-04-01 04:35:00,36.5,8.0,29.09,NNE,28,17.4,22.8,30,0.00,,SKC,0.00,VWS V14.01,2013-04-01 09:35:00,
2013-04-01 04:36:00,36.5,8.0,29.09,NNE,28,16.8,18.3,30,0.00,,SKC,0.00,VWS V14.01,2013-04-01 09:36:00,
2013-04-01 04:37:00,36.5,8.0,29.09,NNE,19,19.7,19.7,30,0.00,,SKC,0.00,VWS V14.01,2013-04-01 09:37:00,
2013-04-01 04:38:00,36.5,8.0,29.09,North,6,18.8,22.4,30,0.00,,SKC,0.00,VWS V14.01,2013-04-01 09:38:00,
2013-04-01 04:39:00,36.5,8.0,29.09,NNE,12,19.7,19.7,30,0.00,,SKC,0.00,VWS V14.01,2013-04-01 09:39:00,
2013-04-01 04:40:00,36.3,7.9,29.09,North,11,18.3,18.3,30,0.00,,SKC,0.00,VWS V14.01,2013-04-01 09:40:00,
2013-04-01 04:41:00,36.5,8.0,29.06,NNE,21,15.9,21.0,30,0.00,,SKC,0.00,VWS V14.01,2013-04-01 09:41:00,
2013-04-01 04:42:00,36.5,8.0,29.06,North,2,15.9,17.9,30,0.00,,SKC,0.00,VWS V14.01,2013-04-01 09:42:00,
2013-04-01 04:43:00,36.5,8.0,29.06,NNE,25,16.8,18.3,30,0.00,,SKC,0.00,VWS V14.01,2013-04-01 09:43:00,
2013-04-01 04:44:00,36.5,8.0,29.06,North,4,17.9,17.9,30,0.00,,SKC,0.00,VWS V14.01,2013-04-01 09:44:00,
2013-04-01 04:45:00,36.3,7.9,29.06,NNE,14,16.3,20.1,30,0.00,,SKC,0.00,VWS V14.01,2013-04-01 09:45:00,
2013-04-01 04:46:00,36.3,7.9,29.06,NNE,13,15.9,17.4,30,0.00,,SKC,0.00,VWS V14.01,2013-04-01 09:46:00,
2013-04-01 04:47:00,36.3,7.9,29.06,North,9,17.4,21.5,30,0.00,,SKC,0.00,VWS V14.01,2013-04-01 09:47:00,
2013-04-01 04:48:00,36.3,7.9,29.06,NNE,13,17.4,18.8,30,0.00,,SKC,0.00,VWS V14.01,2013-04-01 09:48:00,
2013-04-01 04:49:00,36.3,7.9,29.06,NNE,15,19.7,19.7,30,0.00,,SKC,0.00,VWS V14.01,2013-04-01 09:49:00,
2013-04-01 04:50:00,36.3,7.9,29.06,NE,45,19.7,26.2,30,0.00,,SKC,0.00,VWS V14.01,2013-04-01 09:50:00,
2013-04-01 04:51:00,36.3,7.9,29.06,NNE,27,15.4,19.7,30,0.00,,SKC,0.00,VWS V14.01,2013-04-01 09:51:00,
2013-04-01 04:53:00,36.3,7.9,29.06,NNE,15,20.6,23.3,30,0.00,,SKC,0.00,VWS V14.01,2013-04-01 09:53:00,
2013-04-01 04:54:00,36.3,7.9,29.06,NNE,31,19.2,20.6,30,0.00,,SKC,0.00,VWS V14.01,2013-04-01 09:54:00,
2013-04-01 04:55:00,36.3,7.9,29.06,NE,34,16.3,17.0,30,0.00,,SKC,0.00,VWS V14.01,2013-04-01 09:55:00,
2013-04-01 04:57:00,36.3,7.9,29.09,NNE,20,18.3,20.6,30,0.00,,SKC,0.00,VWS V14.01,2013-04-01 09:57:00,
2013-04-01 04:58:00,36.3,7.9,29.09,North,9,15.4,20.6,30,0.00,,SKC,0.00,VWS V14.01,2013-04-01 09:58:00,
2013-04-01 04:59:00,36.3,7.9,29.09,NNE,24,19.2,22.8,30,0.00,,SKC,0.00,VWS V14.01,2013-04-01 09:59:00,
2013-04-01 05:00:00,36.3,7.9,29.09,NNE,27,16.8,20.1,30,0.00,,SKC,0.00,VWS V14.01,2013-04-01 10:00:00,
2013-04-01 05:01:00,36.3,7.9,29.09,NNE,18,19.7,19.7,30,0.00,,SKC,0.00,VWS V14.01,2013-04-01 10:01:00,
2013-04-01 05:02:00,36.3,7.9,29.09,NNE,32,13.2,19.7,30,0.00,,SKC,0.00,VWS V14.01,2013-04-01 10:02:00,
2013-04-01 05:03:00,36.3,7.9,29.09,North,11,19.2,20.1,30,0.00,,SKC,0.00,VWS V14.01,2013-04-01 10:03:00,
2013-04-01 05:04:00,36.3,7.9,29.09,North,10,15.4,19.2,30,0.00,,SKC,0.00,VWS V14.01,2013-04-01 10:04:00,
2013-04-01 05:05:00,36.1,7.7,29.09,NNE,21,16.3,18.8,30,0.00,,SKC,0.00,VWS V14.01,2013-04-01 10:05:00,
2013-04-01 05:06:00,36.3,7.9,29.09,NNE,22,17.4,18.8,30,0.00,,SKC,0.00,VWS V14.01,2013-04-01 10:06:00,
2013-04-01 05:07:00,36.3,7.9,29.09,North,4,12.8,18.3,30,0.00,,SKC,0.00,VWS V14.01,2013-04-01 10:07:00,
2013-04-01 05:08:00,36.3,7.9,29.09,NNE,29,14.1,17.4,30,0.00,,SKC,0.00,VWS V14.01,2013-04-01 10:08:00,
2013-04-01 05:09:00,36.3,7.9,29.09,NNE,19,16.8,17.9,30,0.00,,SKC,0.00,VWS V14.01,2013-04-01 10:09:00,
2013-04-01 05:10:00,36.1,7.7,29.09,NE,35,15.0,20.1,30,0.00,,SKC,0.00,VWS V14.01,2013-04-01 10:10:00,
2013-04-01 05:11:00,36.1,7.7,29.09,NNE,13,17.4,17.4,30,0.00,,SKC,0.00,VWS V14.01,2013-04-01 10:11:00,
2013-04-01 05:12:00,36.1,7.7,29.09,NNE,21,20.1,20.1,30,0.00,,SKC,0.00,VWS V14.01,2013-04-01 10:12:00,
2013-04-01 05:13:00,36.1,7.7,29.09,North,5,15.9,20.6,30,0.00,,SKC,0.00,VWS V14.01,2013-04-01 10:13:00,
2013-04-01 05:14:00,36.1,7.7,29.09,North,359,15.4,15.9,30,0.00,,SKC,0.00,VWS V14.01,2013-04-01 10:14:00,
2013-04-01 05:17:00,36.1,7.7,29.09,NE,41,16.3,21.5,30,0.00,,SKC,0.00,VWS V14.01,2013-04-01 10:17:00,
2013-04-01 05:19:00,36.0,7.6,29.09,NNE,16,17.4,19.7,30,0.00,,SKC,0.00,VWS V14.01,2013-04-01 10:19:00,
2013-04-01 05:20:00,36.0,7.6,29.09,NE,42,16.3,20.6,30,0.00,,SKC,0.00,VWS V14.01,2013-04-01 10:20:00,
2013-04-01 05:21:00,36.0,7.6,29.09,NNE,20,15.9,17.0,30,0.00,,SKC,0.00,VWS V14.01,2013-04-01 10:21:00,
2013-04-01 05:22:00,36.0,7.6,29.09,NNE,17,24.2,24.2,30,0.00,,SKC,0.00,VWS V14.01,2013-04-01 10:22:00,
2013-04-01 05:23:00,36.0,7.6,29.09,NNE,22,15.4,24.2,30,0.00,,SKC,0.00,VWS V14.01,2013-04-01 10:23:00,
2013-04-01 05:24:00,36.0,7.6,29.09,NNE,18,18.8,22.4,30,0.00,,SKC,0.00,VWS V14.01,2013-04-01 10:24:00,
2013-04-01 05:25:00,36.0,7.6,29.09,NNE,19,23.7,23.7,30,0.00,,SKC,0.00,VWS V14.01,2013-04-01 10:25:00,
2013-04-01 05:26:00,36.0,7.6,29.09,NNE,17,19.7,23.7,30,0.00,,SKC,0.00,VWS V14.01,2013-04-01 10:26:00,
2013-04-01 05:27:00,36.0,7.6,29.09,North,8,15.4,19.7,30,0.00,,SKC,0.00,VWS V14.01,2013-04-01 10:27:00,
2013-04-01 05:28:00,35.8,7.4,29.09,NE,38,15.0,17.4,30,0.00,,SKC,0.00,VWS V14.01,2013-04-01 10:28:00,
2013-04-01 05:29:00,35.8,7.4,29.09,NNE,30,15.4,15.9,30,0.00,,SKC,0.00,VWS V14.01,2013-04-01 10:29:00,
2013-04-01 05:30:00,35.8,7.4,29.09,NNE,18,17.4,22.4,30,0.00,,SKC,0.00,VWS V14.01,2013-04-01 10:30:00,
2013-04-01 05:31:00,35.8,7.4,29.09,North,10,16.8,19.2,30,0.00,,SKC,0.00,VWS V14.01,2013-04-01 10:31:00,
2013-04-01 05:32:00,35.8,7.4,29.09,NE,36,17.0,17.0,30,0.00,,SKC,0.00,VWS V14.01,2013-04-01 10:32:00,
2013-04-01 05:33:00,35.8,7.4,29.09,North,9,19.2,21.5,30,0.00,,SKC,0.00,VWS V14.01,2013-04-01 10:33:00,
2013-04-01 05:34:00,35.8,7.4,29.09,NNE,25,15.0,19.2,30,0.00,,SKC,0.00,VWS V14.01,2013-04-01 10:34:00,
2013-04-01 05:35:00,35.8,7.4,29.09,NNE,20,15.4,15.9,30,0.00,,SKC,0.00,VWS V14.01,2013-04-01 10:35:00,
2013-04-01 05:36:00,35.8,7.4,29.09,NNE,15,16.8,16.8,30,0.00,,SKC,0.00,VWS V14.01,2013-04-01 10:36:00,
2013-04-01 05:37:00,35.8,7.4,29.09,NNE,19,17.4,18.3,30,0.00,,SKC,0.00,VWS V14.01,2013-04-01 10:37:00,
2013-04-01 05:38:00,35.8,7.4,29.09,North,10,15.9,21.9,30,0.00,,SKC,0.00,VWS V14.01,2013-04-01 10:38:00,
2013-04-01 05:39:00,35.8,7.4,29.09,NNE,27,17.4,19.2,30,0.00,,SKC,0.00,VWS V14.01,2013-04-01 10:39:00,
2013-04-01 05:40:00,35.8,7.4,29.09,NNE,33,17.9,18.8,30,0.00,,SKC,0.00,VWS V14.01,2013-04-01 10:40:00,
2013-04-01 05:41:00,35.8,7.4,29.09,NNE,19,15.4,17.9,30,0.00,,SKC,0.00,VWS V14.01,2013-04-01 10:41:00,
2013-04-01 05:42:00,35.8,7.4,29.12,NNE,28,19.7,21.0,30,0.00,,SKC,0.00,VWS V14.01,2013-04-01 10:42:00,
2013-04-01 05:43:00,35.8,7.4,29.12,NE,34,15.4,19.7,30,0.00,,SKC,0.00,VWS V14.01,2013-04-01 10:43:00,
2013-04-01 05:44:00,35.8,7.4,29.12,NE,34,17.9,21.9,30,0.00,,SKC,0.00,VWS V14.01,2013-04-01 10:44:00,
2013-04-01 05:45:00,35.8,7.4,29.12,NNE,29,20.1,22.8,30,0.00,,SKC,0.00,VWS V14.01,2013-04-01 10:45:00,
2013-04-01 05:46:00,35.6,7.2,29.12,NE,45,15.4,20.1,30,0.00,,SKC,0.00,VWS V14.01,2013-04-01 10:46:00,
2013-04-01 05:47:00,35.6,7.2,29.12,NE,44,17.0,19.7,30,0.00,,SKC,0.00,VWS V14.01,2013-04-01 10:47:00,
2013-04-01 05:48:00,35.6,7.2,29.12,NE,48,15.0,19.2,30,0.00,,SKC,0.00,VWS V14.01,2013-04-01 10:48:00,
2013-04-01 05:49:00,35.6,7.2,29.12,NNE,12,17.4,17.4,30,0.00,,SKC,0.00,VWS V14.01,2013-04-01 10:49:00,
2013-04-01 05:50:00,35.6,7.2,29.12,NE,35,21.0,22.4,30,0.00,,SKC,0.00,VWS V14.01,2013-04-01 10:50:00,
2013-04-01 05:51:00,35.6,7.2,29.12,NE,36,15.4,21.0,30,0.00,,SKC,0.00,VWS V14.01,2013-04-01 10:51:00,
2013-04-01 05:52:00,35.6,7.2,29.12,NE,41,22.4,22.4,30,0.00,,SKC,0.00,VWS V14.01,2013-04-01 10:52:00,
2013-04-01 05:53:00,35.4,7.1,29.12,NNE,27,19.7,23.7,30,0.00,,SKC,0.00,VWS V14.01,2013-04-01 10:53:00,
2013-04-01 05:54:00,35.4,7.1,29.12,NE,40,18.8,19.7,30,0.00,,SKC,0.00,VWS V14.01,2013-04-01 10:54:00,
2013-04-01 05:55:00,35.4,7.1,29.12,NE,38,15.4,22.8,30,0.00,,SKC,0.00,VWS V14.01,2013-04-01 10:55:00,
2013-04-01 05:56:00,35.4,7.1,29.12,NNE,32,13.2,15.4,30,0.00,,SKC,0.00,VWS V14.01,2013-04-01 10:56:00,
2013-04-01 05:57:00,35.4,7.1,29.12,NE,42,20.1,22.8,30,0.00,,SKC,0.00,VWS V14.01,2013-04-01 10:57:00,
2013-04-01 05:58:00,35.4,7.1,29.12,NNE,21,16.3,20.1,30,0.00,,SKC,0.00,VWS V14.01,2013-04-01 10:58:00,
2013-04-01 05:59:00,35.4,7.1,29.12,North,2,12.8,16.3,30,0.00,,SKC,0.00,VWS V14.01,2013-04-01 10:59:00,
2013-04-01 06:00:00,35.4,7.1,29.12,NNE,33,20.6,20.6,30,0.00,,SKC,0.00,VWS V14.01,2013-04-01 11:00:00,
2013-04-01 06:01:00,35.4,7.1,29.12,NNE,30,21.0,23.7,30,0.00,,SKC,0.00,VWS V14.01,2013-04-01 11:01:00,
2013-04-01 06:02:00,35.4,7.1,29.12,NE,36,15.9,22.4,30,0.00,,SKC,0.00,VWS V14.01,2013-04-01 11:02:00,
2013-04-01 06:03:00,35.4,7.1,29.12,NE,42,15.0,19.2,30,0.00,,SKC,0.00,VWS V14.01,2013-04-01 11:03:00,
2013-04-01 06:04:00,35.4,7.1,29.12,NE,35,18.3,18.3,30,0.00,,SKC,0.00,VWS V14.01,2013-04-01 11:04:00,
2013-04-01 06:06:00,35.4,7.1,29.12,North,354,14.5,18.3,30,0.00,,SKC,0.00,VWS V14.01,2013-04-01 11:06:00,
2013-04-01 06:07:00,35.4,7.1,29.12,NNE,18,13.6,15.4,30,0.00,,SKC,0.00,VWS V14.01,2013-04-01 11:07:00,
2013-04-01 06:08:00,35.4,7.1,29.12,NNE,33,15.9,19.7,30,0.00,,SKC,0.00,VWS V14.01,2013-04-01 11:08:00,
2013-04-01 06:09:00,35.4,7.1,29.12,NNE,14,19.7,19.7,30,0.00,,SKC,0.00,VWS V14.01,2013-04-01 11:09:00,
2013-04-01 06:10:00,35.4,7.1,29.12,NNE,31,17.9,17.9,30,0.00,,SKC,0.00,VWS V14.01,2013-04-01 11:10:00,
2013-04-01 06:11:00,35.4,7.1,29.12,NNE,15,21.0,21.0,30,0.00,,SKC,0.00,VWS V14.01,2013-04-01 11:11:00,
2013-04-01 06:12:00,35.4,7.1,29.12,NE,37,19.7,21.0,30,0.00,,SKC,0.00,VWS V14.01,2013-04-01 11:12:00,
2013-04-01 06:13:00,35.4,7.1,29.12,NNE,30,15.4,22.4,30,0.00,,SKC,0.00,VWS V14.01,2013-04-01 11:13:00,
2013-04-01 06:14:00,35.4,7.1,29.12,NE,34,15.4,15.4,30,0.00,,SKC,0.00,VWS V14.01,2013-04-01 11:14:00,
2013-04-01 06:17:00,35.2,6.9,29.12,NNE,29,15.9,21.9,30,0.00,,SKC,0.00,VWS V14.01,2013-04-01 11:17:00,
2013-04-01 06:18:00,35.2,6.9,29.12,NE,34,23.7,23.7,30,0.00,,SKC,0.00,VWS V14.01,2013-04-01 11:18:00,
2013-04-01 06:19:00,35.2,6.9,29.12,NNE,33,18.3,24.6,30,0.00,,SKC,0.00,VWS V14.01,2013-04-01 11:19:00,
2013-04-01 06:23:00,35.2,6.9,29.12,NE,48,15.4,17.4,30,0.00,,SKC,0.00,VWS V14.01,2013-04-01 11:23:00,
2013-04-01 06:24:00,35.2,6.9,29.12,NNE,24,20.6,20.6,30,0.00,,SKC,0.00,VWS V14.01,2013-04-01 11:24:00,
2013-04-01 06:26:00,35.2,6.9,29.12,NE,35,18.8,23.7,30,0.00,,SKC,0.00,VWS V14.01,2013-04-01 11:26:00,
2013-04-01 06:29:00,35.2,6.9,29.12,NNE,23,16.8,22.8,30,0.00,,SKC,0.00,VWS V14.01,2013-04-01 11:29:00,
2013-04-01 06:30:00,35.2,6.9,29.12,NNE,26,15.4,19.7,30,0.00,,SKC,0.00,VWS V14.01,2013-04-01 11:30:00,
2013-04-01 06:31:00,35.2,6.9,29.12,NNE,23,14.5,19.7,30,0.00,,SKC,0.00,VWS V14.01,2013-04-01 11:31:00,
2013-04-01 06:32:00,35.1,6.8,29.12,NE,43,23.7,23.7,30,0.00,,SKC,0.00,VWS V14.01,2013-04-01 11:32:00,
2013-04-01 06:33:00,35.1,4.5,29.12,NNE,32,22.4,23.7,27,0.00,,SKC,0.00,VWS V14.01,2013-04-01 11:33:00,
2013-04-01 06:34:00,35.1,4.5,29.12,NNE,14,15.4,22.4,27,0.00,,SKC,0.00,VWS V14.01,2013-04-01 11:34:00,
2013-04-01 06:35:00,35.1,4.5,29.12,NNE,32,20.1,23.3,27,0.00,,SKC,0.00,VWS V14.01,2013-04-01 11:35:00,
2013-04-01 06:36:00,35.1,4.5,29.12,NNE,31,17.4,22.4,27,0.00,,SKC,0.00,VWS V14.01,2013-04-01 11:36:00,
2013-04-01 06:37:00,35.1,4.5,29.12,NNE,28,18.3,19.7,27,0.00,,SKC,0.00,VWS V14.01,2013-04-01 11:37:00,
2013-04-01 06:38:00,34.9,6.6,29.12,NNE,25,17.4,21.0,30,0.00,,SKC,0.00,VWS V14.01,2013-04-01 11:38:00,
2013-04-01 06:39:00,34.9,6.6,29.12,NE,35,17.4,17.4,30,0.00,,SKC,0.00,VWS V14.01,2013-04-01 11:39:00,
2013-04-01 06:41:00,34.9,4.3,29.15,NNE,16,18.8,22.4,27,0.00,,SKC,0.00,VWS V14.01,2013-04-01 11:41:00,
2013-04-01 06:42:00,34.9,4.3,29.15,NNE,16,15.4,18.8,27,0.00,,SKC,0.00,VWS V14.01,2013-04-01 11:42:00,
2013-04-01 06:43:00,34.9,6.6,29.15,NNE,29,12.8,20.6,30,0.00,,SKC,0.00,VWS V14.01,2013-04-01 11:43:00,
2013-04-01 06:44:00,34.9,6.6,29.15,NNE,26,15.9,15.9,30,0.00,,SKC,0.00,VWS V14.01,2013-04-01 11:44:00,
2013-04-01 06:45:00,34.9,6.6,29.15,NE,35,22.8,22.8,30,0.00,,SKC,0.00,VWS V14.01,2013-04-01 11:45:00,
2013-04-01 06:47:00,34.9,4.3,29.15,NE,42,13.2,19.2,27,0.00,,SKC,0.00,VWS V14.01,2013-04-01 11:47:00,
2013-04-01 06:48:00,35.1,4.5,29.15,NNE,30,18.3,22.8,27,0.00,,SKC,0.00,VWS V14.01,2013-04-01 11:48:00,
2013-04-01 06:49:00,35.1,4.5,29.15,NE,36,19.2,19.2,27,0.00,,SKC,0.00,VWS V14.01,2013-04-01 11:49:00,
2013-04-01 06:50:00,35.1,4.5,29.15,NNE,31,17.9,17.9,27,0.00,,SKC,0.00,VWS V14.01,2013-04-01 11:50:00,
2013-04-01 06:51:00,35.1,6.8,29.15,North,8,18.8,18.8,30,0.00,,SKC,0.00,VWS V14.01,2013-04-01 11:51:00,
2013-04-01 06:52:00,35.1,6.8,29.15,NNE,21,16.3,19.2,30,0.00,,SKC,0.00,VWS V14.01,2013-04-01 11:52:00,
2013-04-01 06:53:00,35.1,6.8,29.15,NNE,19,14.5,17.4,30,0.00,,SKC,0.00,VWS V14.01,2013-04-01 11:53:00,
2013-04-01 06:54:00,35.1,6.8,29.15,NNE,30,17.0,20.6,30,0.00,,SKC,0.00,VWS V14.01,2013-04-01 11:54:00,
2013-04-01 06:55:00,35.1,6.8,29.15,NE,44,15.4,18.8,30,0.00,,SKC,0.00,VWS V14.01,2013-04-01 11:55:00,
2013-04-01 06:56:00,34.9,6.6,29.15,NNE,18,15.9,15.9,30,0.00,,SKC,0.00,VWS V14.01,2013-04-01 11:56:00,
2013-04-01 06:57:00,35.1,6.8,29.15,NNE,31,15.0,21.5,30,0.00,,SKC,0.00,VWS V14.01,2013-04-01 11:57:00,
2013-04-01 06:59:00,35.1,4.5,29.15,North,351,17.0,17.0,27,0.00,,SKC,0.00,VWS V14.01,2013-04-01 11:59:00,
2013-04-01 07:00:00,34.9,4.3,29.15,ENE,65,17.4,21.0,27,0.00,,SKC,0.00,VWS V14.01,2013-04-01 12:00:00,
2013-04-01 07:01:00,35.1,6.8,29.15,NNE,30,17.9,17.9,30,0.00,,SKC,0.00,VWS V14.01,2013-04-01 12:01:00,
2013-04-01 07:02:00,35.1,6.8,29.15,NNE,27,13.2,18.3,30,0.00,,SKC,0.00,VWS V14.01,2013-04-01 12:02:00,
2013-04-01 07:03:00,35.1,6.8,29.15,NNE,21,15.4,17.0,30,0.00,,SKC,0.00,VWS V14.01,2013-04-01 12:03:00,
2013-04-01 07:04:00,35.1,6.8,29.15,NE,35,20.1,20.1,30,0.00,,SKC,0.00,VWS V14.01,2013-04-01 12:04:00,
2013-04-01 07:05:00,35.1,6.8,29.15,NNE,33,17.4,19.2,30,0.00,,SKC,0.00,VWS V14.01,2013-04-01 12:05:00,
2013-04-01 07:06:00,35.1,6.8,29.15,NE,39,19.7,23.3,30,0.00,,SKC,0.00,VWS V14.01,2013-04-01 12:06:00,
2013-04-01 07:07:00,34.9,6.6,29.15,NNE,12,16.8,22.4,30,0.00,,SKC,0.00,VWS V14.01,2013-04-01 12:07:00,
2013-04-01 07:09:00,35.1,6.8,29.15,NE,52,12.8,13.2,30,0.00,,SKC,0.00,VWS V14.01,2013-04-01 12:09:00,
2013-04-01 07:10:00,35.1,6.8,29.15,North,5,13.2,16.3,30,0.00,,SKC,0.00,VWS V14.01,2013-04-01 12:10:00,